Regional Weather Roundup
Issued by NWS Albany, NY

Home | Current Version | Previous Version | Graphics & Text | Print | Product List | Glossary Off
Versions: 1 2 3 4 5 6 7 8 9 10 11 12 13 14 15 16 17 18 19 20 21 22 23 24 25 26 27

000
ASUS41 KALY 220010
RWRALY

NEW YORK STATE HOURLY WEATHER ROUNDUP
NATIONAL WEATHER SERVICE ALBANY NY
800 PM EDT MON MAY 21 2018

NOTE: "FAIR" INDICATES FEW OR NO CLOUDS BELOW 12,000 FEET WITH NO
SIGNIFICANT WEATHER AND/OR NO OBSTRUCTIONS TO VISIBILITY.

NYZ032-033-038>043-046>054-057>066-NYZ062>081-082-084-220100-
EAST


CITY           SKY/WX    TMP DP  RH WIND       PRES   REMARKS
ALBANY         MOCLDY    72  42  34 W7        30.12R
GLENS FALLS    FAIR      70  48  45 S9        30.09R
POUGHKEEPSIE   FAIR      69  54  58 CALM      30.11R
NEWBURGH       CLEAR     75  45  33 VRB5      30.14R
MONTGOMERY     FAIR      69  56  62 CALM      30.11R
WHITE PLAINS   FAIR      66  48  52 S8        30.15R
ISLIP          MOCLDY    63  48  58 S6        30.16R
NEW YORK CITY  MOCLDY    67  49  52 S10       30.15R
CENTRAL PARK   FAIR      68  47  46 VRB5      30.18R
$$

NYZ005>009-017-018-044>046-055-056-220100-
CENTRAL


CITY           SKY/WX    TMP DP  RH WIND       PRES   REMARKS
FULTON         FAIR      64  45  49 CALM      30.14F
SYRACUSE       MOCLDY    66  50  56 NE6       30.13S
ROME           FAIR      69  45  41 W5        30.16R
ELMIRA         FAIR      66  49  54 NE3       30.13S
BINGHAMTON     FAIR      68  44  42 CALM      30.16S
$$

NYZ026>034-041>043-087-220100-
NORTH


CITY           SKY/WX    TMP DP  RH WIND       PRES   REMARKS
WATERTOWN      FAIR      59  46  62 CALM      30.14S
FORT DRUM      NOT AVBL
OGDENSBURG     FAIR      66  38  36 SW6       30.12S
MASSENA        FAIR      67  45  45 SW10      30.11R
SARANAC LAKE   FAIR      66  41  40 W3        30.14R
PLATTSBURGH    FAIR      73  41  31 NW3       30.07S
$$

NYZ001>004-010>016-019>021-085-220100-
WEST


CITY           SKY/WX    TMP DP  RH WIND       PRES   REMARKS
NIAGARA FALLS  FAIR      65  46  50 NE8       30.12S
BUFFALO        CLOUDY    69  51  52 NE9       30.12S
DUNKIRK        FAIR      67  46  47 NE5       30.10S
JAMESTOWN      FAIR      70  44  39 N3        30.13S
WELLSVILLE     FAIR      68  40  35 SE7       30.16F
ROCHESTER      CLOUDY    64  45  49 NE5       30.14S
PENN YAN       FAIR      66  44  45 CALM      30.15F
$$

             KEY
       WCI = WIND CHILL INDEX
       VSB = VISIBILITY
       HX  = HEAT INDEX
$$




USA.gov is the U.S. government's official web portal to all federal, state and local government web resources and services.